EHI
0 0 0 0 0 0 0 0 0 0 0 0 0 0 0 0 0 0 0 0 0 0 0 0 0 0 0 0 0 0 0 0 0 0 0 0 0 0
0 0 0 0 0 0 0 0 0 0 0 0 0 0 0 0 0 0 0 0 0 0 0 0 0 0 0 0 0 0 0 0 0 0 0 0 0 0
0 0 0 0 0 0 0 0 0 0 0 0 0 0 0 0 0 0 0 0 0 0 0 0 0 0 0 0 0 0 0 0 0 0 0 0 0 0
0 0 0 0 0 0 0 0 0 0 0 0 0 0 0 0 0 0 0 0 0 0 0 0 0 0 0 0 0 0 0 0 0 0 0 0 0 0
0 0 0 0 0 0 0 0 0 0 0 0 0 0 0 0 0 0 0 0 0 0 0 0 0 0 0 0 0 0 0 0 0 0 0 0 0 0
0 0 0 0 0 0 0 0 0 0 0 0 0 0 0 0 0 0 0 0 0 0 0 0 0 0 0 0 0 0 0 0 0 0 0 0 0 0
0 0 0 0 0 0 0 0 0 0 0 0 0 0 0 0 0 0 0 0 0 0 0 0 0 0 0 0 0 0 0 0 0 0 0 0 0 0
0 0 0 0 0 0 0 0 0 0 0 0 0 0 0 0 0 0 0 0 0 0 0 0 0 0 0 0 0 0 0 0 0 0 0 0 0 0
0 0 0 0 0 0 0 0 0 0 0 0 0 0 0 0 0 0 0 0 0 0 0 0 0 0 0 0 0 0 0 0 0 0 0 0 0 0
0 0 0 0 0 0 0 0 0 0 0 0 0 0 0 0 0 0 0 0 0 0 0 0 0 0 0 0 0 0 0 0 0 0 0 0 0 0
0 0 0 0 0 0 0 0 0 0 0 0 0 0 0 0 0 0 0 0 0 0 0 0 0 0 0 0 0 0 0 0 0 0 0 0 0 0
0 0 0 0 0 0 0 0 0 0 0 0 0 0 0 0 0 0 0 0 0 0 0 0 0 0 0 0 0 0 0 0 0 0 0 0 0 0
0 0 0 0 0 0 0 0 0 0 0 0 0 0 0 0 0 0 0 0 0 0 0 0 0 0 0 0 0 0 0 0 0 0 0 0 0 0
0 0 0 0 0 0 0 0 0 0 0 0 0 0 0 0 0 0 0 0 0 0 0 0 0 0 0 0 0 0 0 0 0 0 0 0 0 0
0 0 0 0 0 0 0 0 0 0 0 0 0 0 0 0 0 0 0 0 0 0 0 0 0 0 0 0 0 0 0 0 0 0 0 0 0 0
0 0 0 0 0 0 0 0 0 0 0 0 0 0 0 0 0 0 0 0 0 0 0 0 0 0 0 0 0 0 0 0 0 0 0 0 0 0
0 0 0 0 0 0 0 0 0 0 0 0 0 0 0 0 0 0 0 0 0 0 0 0 0 0 0 0 0 0 0 0 0 0 0 0 0 0
0 0 0 0 0 0 0 0 0 0 0 0 0 0 0 0 0 0 0 0 0 0 0 0 0 0 0 0 0 0 0 0 0 0 0 0 0 0
0 0 0 0 0 0 0 0 0 0 0 0 0 0 0 0 0 0 0 0 0 0 0 0 0 0 0 0 0 0 0 0 0 0 0 0 0 0
0 0 0 0 0 0 0 0 0 0 0 0 0 0 0 0 0 0 0 0 0 0 0 0 0 0 0 0 0 0 0 0 0 0 0 0 0 0
0 0 0 0 0 0 0 0 0 0 0 0 0 0 0 0 0 0 0 0 0 0 0 0 0 0 0 0 0 0 0 0 0 0 0 0 0 0
0 0 0 0 0 0 0 0 0 0 0 0 0 0 0 0 0 0 0 0 0 0 0 0 0 0 0 0 0 0 0 0 0 0 0 0 0 0
0 0 0 0 0 0 0 0 0 0 0 0 0 0 0 0 0 0 0 0 0 0 0 0 0 0 0 0 0 0 0 0 0 0 0 0 0 0
Wind_Speed
10 10 7 5 5 4 5 6 7 5 4 4 3 2 3 3 5 3 3 3 3 2 1 1 2 3 5 6 7 8 9 11 12 13 14 15 16 17
8 10 8 5 6 5 5 4 4 5 4 3 3 2 3 3 5 3 3 3 2 2 2 2 2 3 4 5 7 8 9 11 12 13 14 15 16 17
10 10 10 8 7 6 5 5 4 4 4 2 2 2 3 3 3 2 2 2 1 2 1 1 2 3 4 5 6 7 9 10 11 13 14 15 16 17
13 11 10 8 9 7 6 6 5 4 5 4 2 2 2 3 3 3 2 1 1 1 1 1 2 3 4 4 5 6 8 9 10 12 13 14 16 17
13 12 11 11 10 7 7 6 5 4 3 5 3 2 2 2 3 2 1 1 0 0 1 2 2 3 4 4 5 6 7 8 10 11 13 14 15 16
11 11 11 12 12 10 8 7 6 5 5 5 4 3 2 2 2 2 1 0 1 1 2 2 2 3 4 5 5 6 7 8 10 11 12 13 14 15
11 10 10 11 13 11 8 8 8 6 5 5 4 3 3 3 3 2 2 1 1 1 1 1 1 1 2 4 5 6 7 8 10 12 13 13 14 14
12 10 9 11 12 14 14 13 12 10 8 6 4 4 4 4 3 3 3 2 1 1 0 1 1 1 2 2 4 6 7 9 10 11 12 13 13 14
12 11 8 8 11 9 11 11 10 10 11 9 7 6 6 6 6 4 3 2 2 1 1 1 1 2 2 3 5 6 7 9 10 11 12 13 13 14
12 13 12 11 10 11 10 8 6 5 6 5 6 6 5 6 6 5 4 3 2 1 1 0 1 2 2 2 4 6 8 9 10 11 12 13 13 13
11 11 12 12 16 17 13 11 8 5 7 9 9 8 10 10 9 6 5 3 1 1 0 1 1 2 2 2 3 6 8 9 11 12 13 14 14 13
9 10 14 14 18 19 14 13 11 8 8 8 8 8 7 7 8 5 5 4 2 1 1 1 0 1 2 2 2 3 4 7 11 12 13 14 15 7
9 8 9 17 19 19 15 11 13 12 9 9 7 6 5 4 3 3 2 3 3 2 2 2 1 0 0 3 3 2 2 3 4 6 10 14 15 10
9 8 10 18 18 17 12 14 19 15 8 7 6 5 4 3 3 3 4 3 2 2 2 2 2 1 1 2 3 3 3 3 3 4 5 11 11 13
8 13 16 19 17 13 15 19 16 9 8 7 6 5 3 4 4 4 4 5 5 4 2 1 1 1 1 2 2 3 4 3 3 4 5 5 5 5
10 14 18 17 12 13 14 11 7 7 7 7 6 5 4 4 4 3 3 3 3 2 3 2 1 1 1 2 2 3 3 4 4 5 6 6 5 4
12 9 8 9 8 7 7 7 6 7 6 6 7 6 5 5 4 3 2 2 2 1 1 2 2 1 1 2 1 2 3 3 4 5 6 7 6 4
13 10 9 9 9 9 9 7 6 6 6 7 7 6 6 5 4 3 2 2 2 1 0 1 2 2 2 2 2 2 2 3 4 5 4 6 7 5
10 9 9 9 9 8 8 7 6 6 6 7 7 7 6 5 5 4 3 2 2 1 0 0 1 1 2 3 4 2 2 4 5 5 4 4 7 8
8 9 9 9 9 8 8 7 7 7 7 6 6 6 6 6 5 4 4 3 2 1 1 1 1 0 0 1 3 4 5 5 4 5 5 5 6 9
8 8 8 8 8 8 8 8 8 8 8 7 6 7 6 6 5 4 4 5 3 2 1 1 1 2 0 1 2 4 5 6 7 5 5 5 5 4
8 8 8 8 8 8 8 8 8 8 8 7 6 6 6 5 6 6 5 4 3 2 1 0 1 1 1 1 2 5 6 7 8 9 7 5 3 4
8 8 9 9 9 8 8 9 10 8 7 7 7 6 6 5 5 5 4 4 3 3 2 0 1 1 1 1 2 4 6 7 6 6 5 7 8 9
Wind_Direction
182 178 175 175 170 161 152 153 151 167 207 208 190 187 177 167 165 161 169 188 185 198 218 271 308 321 323 328 329 331 334 333 333 330 329 331 333 333
180 179 180 174 170 164 161 160 153 154 182 192 184 159 163 163 161 155 172 177 192 210 228 261 299 320 323 327 329 330 331 330 331 332 332 333 334 334
182 183 184 173 170 169 165 163 160 146 159 157 132 132 144 152 144 144 151 168 199 216 236 271 307 311 316 324 328 330 332 333 334 335 336 335 335 334
184 183 183 176 174 171 170 171 168 157 151 159 145 137 141 154 146 142 137 143 190 218 226 290 305 314 322 329 333 334 336 337 337 336 335 335 335 333
184 184 181 176 178 172 170 171 167 153 138 142 144 129 120 127 125 116 112 80 345 263 282 304 311 323 328 333 333 335 338 338 336 335 335 335 335 334
182 183 181 182 180 173 172 172 160 149 137 134 133 130 122 118 127 142 141 70 349 4 348 332 343 3 352 343 336 336 338 337 335 335 335 336 336 335
179 182 181 180 178 175 172 171 164 158 150 144 141 135 146 155 176 162 156 128 347 15 339 325 343 351 341 332 330 334 338 338 339 339 339 339 338 337
178 178 176 175 173 170 166 164 164 163 165 161 162 169 178 173 149 146 138 138 241 280 13 298 1 319 310 298 326 342 343 344 344 342 340 340 339 337
178 175 173 173 166 164 156 149 153 156 160 163 166 179 172 172 156 150 157 157 186 208 98 280 327 298 297 316 336 347 351 349 347 344 341 339 339 338
178 174 170 169 169 158 148 144 140 141 150 150 160 165 156 154 158 154 145 117 91 34 83 210 303 296 312 316 325 351 353 349 347 345 343 341 339 340
174 171 169 170 165 154 150 147 138 124 113 118 116 119 125 132 132 120 124 118 137 222 83 132 292 313 313 309 321 344 349 346 346 345 343 341 340 343
167 168 170 168 163 159 158 155 153 148 134 117 106 101 104 120 125 134 149 142 141 197 200 131 120 1 325 309 316 328 341 341 345 345 344 342 341 342
166 167 169 162 161 162 160 161 156 144 137 129 122 113 103 99 93 90 105 136 149 184 182 136 139 113 243 303 311 315 325 319 326 330 338 339 339 339
168 164 160 158 158 158 156 146 140 135 133 132 132 132 129 120 104 90 81 73 87 145 165 142 150 170 190 292 291 309 316 307 313 318 320 329 334 334
154 151 150 151 150 150 145 142 140 140 143 144 147 146 138 131 118 99 81 74 65 58 61 84 140 167 187 232 275 298 314 312 318 319 317 317 311 315
140 138 137 137 135 136 139 139 140 148 148 145 139 131 125 127 125 119 112 97 74 40 23 34 56 152 218 254 257 278 286 295 312 318 315 306 300 296
138 131 131 137 138 135 134 136 138 139 134 130 134 134 135 132 128 122 117 104 102 116 351 355 7 360 254 231 257 269 284 290 296 313 319 314 303 299
138 142 145 147 150 151 149 147 146 147 143 140 141 143 145 144 137 128 115 111 118 125 122 330 354 5 6 334 241 261 286 288 301 308 306 307 307 308
143 149 152 154 153 153 153 151 149 146 142 144 146 147 146 144 142 143 137 120 116 112 98 5 5 37 16 326 308 283 275 300 308 307 299 291 294 302
151 153 154 154 153 153 153 148 142 141 143 145 145 146 145 146 148 150 149 141 137 122 83 11 351 332 216 249 279 292 296 292 301 305 303 296 285 292
153 152 150 152 152 150 149 147 146 147 148 147 147 147 147 147 148 146 143 143 130 135 147 270 280 323 335 20 317 301 298 305 303 293 297 306 310 316
152 151 149 149 149 148 147 146 144 144 147 145 146 146 147 149 148 146 145 146 147 141 135 286 319 350 27 15 307 302 307 314 318 320 307 287 302 317
152 151 149 149 147 147 148 148 147 148 149 146 145 146 145 142 139 137 137 136 134 130 122 78 348 3 354 306 301 304 308 315 323 331 325 328 322 304